Location: Cluny
(50.9333°N, 112.8167°W)
Time: 07:17:02
(UTC-07:00)

Hamsat - Visible Passes

Search period start: 22 December 2014 00:00
Search period end: 01 January 2015 00:00
Orbit: 593 x 625 km, 97.6° (Epoch: 22 December)

Date Brightness Start Highest point End Pass type
(mag) Time Alt. Az. Time Alt. Az. Time Alt. Az.
22 Dec ? 05:47:12 10° NNE 05:51:13 36° E 05:55:11 10° SSE visible
22 Dec ? 07:23:17 10° N 07:27:04 30° WNW 07:30:48 10° SW visible
22 Dec ? 18:21:45 10° SW 18:25:08 22° W 18:28:34 10° NW visible
23 Dec ? 06:00:55 10° NNE 06:05:09 48° E 06:09:18 10° S visible
23 Dec ? 07:37:23 10° N 07:40:48 23° WNW 07:44:11 10° WSW visible
23 Dec ? 18:36:20 10° SW 18:39:08 17° W 18:41:58 10° NW visible
24 Dec ? 06:14:41 10° NNE 06:19:02 66° ESE 06:23:17 10° S visible
24 Dec ? 07:51:34 10° NNW 07:54:29 18° WNW 07:57:24 10° WSW visible
24 Dec ? 17:12:15 10° SSE 17:16:36 87° ENE 17:20:59 10° NNW visible
24 Dec ? 18:51:19 10° WSW 18:53:09 12° W 18:55:00 10° WNW visible
25 Dec ? 04:54:45 10° ENE 04:56:16 12° E 04:57:47 10° ESE visible
25 Dec ? 06:28:30 10° NNE 06:32:52 89° ESE 06:37:10 10° SSW visible
25 Dec ? 17:26:06 10° S 17:30:26 70° WSW 17:34:48 10° NNW visible
26 Dec ? 05:07:38 10° NE 05:10:16 16° E 05:12:53 10° SE visible
26 Dec ? 06:42:21 10° N 06:46:40 68° WNW 06:50:55 10° SSW visible
26 Dec ? 17:40:03 10° S 17:44:17 51° W 17:48:33 10° NNW visible
27 Dec ? 05:20:57 10° NE 05:24:14 21° E 05:27:28 10° SE visible
27 Dec ? 06:56:14 10° N 07:00:26 50° WNW 07:04:34 10° SW visible
27 Dec ? 17:54:06 10° SSW 17:58:09 38° W 18:02:14 10° NNW visible
28 Dec ? 05:34:25 10° NE 05:38:09 28° E 05:41:49 10° SSE visible
28 Dec ? 07:10:10 10° N 07:14:09 37° WNW 07:18:06 10° SW visible
28 Dec ? 18:08:16 10° SSW 18:12:01 28° W 18:15:49 10° NW visible
29 Dec ? 05:48:00 10° NNE 05:52:01 37° E 05:55:59 10° SSE visible
29 Dec ? 07:24:08 10° N 07:27:50 28° WNW 07:31:30 10° WSW visible
29 Dec ? 18:22:35 10° SW 18:25:55 21° W 18:29:17 10° NW visible
30 Dec ? 06:01:39 10° NNE 06:05:51 50° E 06:10:00 10° S visible
30 Dec ? 07:38:09 10° NNW 07:41:29 22° WNW 07:44:47 10° WSW visible
30 Dec ? 18:37:07 10° SW 18:39:50 16° W 18:42:34 10° NW visible
31 Dec ? 06:15:20 10° NNE 06:19:39 69° ESE 06:23:53 10° S visible
31 Dec ? 07:52:16 10° NNW 07:55:05 17° WNW 07:57:53 10° W visible
31 Dec ? 17:12:50 10° SSE 17:17:12 90° ENE 17:21:35 10° NNW visible
31 Dec ? 18:52:05 10° WSW 18:53:46 12° W 18:55:27 10° WNW visible
